RH
91 86 86 85 69 62 56 39 32 31 24 19 16 13 11 10 8 5 4 3 2 3 2 1 1 0 1 1 1 1 1 1 2 1 1 1 1 1 1 1 1 1 1 1 1 1 1 1 1 1 1 1
86 80 79 76 62 54 45 31 26 25 21 19 16 12 10 9 6 5 3 2 2 2 2 1 1 1 1 1 1 2 1 2 2 1 2 1 1 1 1 1 1 1 1 1 1 1 1 1 1 1 1 1
81 76 70 64 53 46 38 30 27 24 22 19 15 12 8 6 5 3 2 1 2 1 2 1 1 1 1 2 2 2 2 2 1 1 1 1 1 1 1 1 0 1 0 1 1 0 1 1 1 1 1 1
78 74 68 60 49 44 37 28 25 23 21 17 13 10 6 5 3 3 2 1 2 1 1 1 1 1 1 2 2 2 2 2 2 1 1 1 1 1 1 1 1 1 0 1 0 1 1 0 1 1 1 1
77 73 66 56 45 37 31 23 21 20 17 15 12 9 5 3 3 2 2 1 1 1 1 1 1 1 2 2 2 3 2 2 2 1 1 1 1 1 1 1 1 1 1 1 1 1 1 1 1 1 1 1
81 76 63 49 40 31 25 22 20 17 15 14 11 7 4 2 2 2 2 1 1 1 1 1 1 2 2 2 3 2 2 2 2 2 2 1 1 1 1 1 1 1 1 1 1 1 1 1 1 1 1 1
83 81 67 50 41 33 29 27 23 19 16 13 9 6 3 2 2 2 2 1 1 1 1 1 1 2 2 2 3 3 3 2 2 2 1 2 2 1 1 1 1 1 1 1 1 1 1 1 1 2 1 1
81 82 75 55 42 39 35 31 26 21 15 11 8 4 3 2 2 2 2 1 1 2 1 1 2 1 2 2 3 3 3 3 2 2 2 2 2 2 2 1 2 1 2 1 1 1 1 2 1 1 2 1
78 81 77 53 39 38 32 27 23 19 15 11 7 4 3 2 2 2 1 2 1 1 1 2 2 2 3 3 3 3 3 3 3 3 2 2 2 2 2 2 3 2 2 2 2 2 2 2 2 2 2 2
78 82 75 49 38 37 30 25 20 18 16 12 9 6 5 2 2 2 1 2 2 2 2 1 2 2 3 3 3 3 3 3 3 3 3 3 3 2 3 3 3 3 3 3 2 3 3 3 3 3 3 3
78 79 67 45 39 38 31 26 20 18 18 14 12 9 6 3 1 2 2 2 2 2 2 2 2 2 3 3 3 4 3 4 3 3 3 3 3 3 3 3 3 4 3 4 4 4 4 4 4 4 4 4
74 66 59 47 41 39 31 26 21 18 19 16 14 11 7 3 2 2 2 2 2 2 2 2 3 2 3 3 3 4 4 4 4 4 4 3 4 3 4 4 4 4 4 5 5 5 5 5 5 5 5 5
74 65 65 60 49 41 34 28 22 19 19 18 16 13 8 3 2 2 2 2 2 2 2 2 3 3 3 4 4 4 4 4 4 4 4 4 4 4 4 5 5 5 5 5 5 6 6 5 6 6 6 6
78 75 76 71 58 45 39 32 23 19 20 19 17 14 9 4 2 2 2 2 2 2 3 2 3 3 3 4 4 5 5 5 5 5 5 5 5 5 5 5 6 6 6 6 6 6 6 6 6 6 7 7
76 78 77 75 67 54 45 36 24 19 20 19 18 14 8 4 2 2 2 2 3 3 3 3 3 4 4 4 5 5 5 5 5 5 5 5 6 6 6 6 6 7 7 7 7 7 7 7 7 7 8 7
73 74 74 74 72 64 50 35 25 19 20 20 18 15 9 5 3 2 3 3 3 3 3 3 3 4 4 5 5 6 6 6 6 6 6 6 6 7 7 7 7 7 7 8 7 8 8 7 8 8 8 8
69 70 72 73 74 69 52 33 25 20 19 20 19 16 10 5 3 3 3 3 3 3 3 4 4 4 4 5 6 6 6 6 6 6 6 6 7 7 7 8 8 8 8 8 8 9 9 9 9 9 9 10
65 66 68 70 71 70 57 36 24 20 19 20 19 16 12 7 4 3 3 3 3 3 4 4 4 4 5 6 6 7 7 7 7 7 7 7 8 8 8 9 8 9 9 9 9 9 9 10 10 10 10 10
57 60 61 63 63 65 61 42 24 19 19 20 19 16 12 8 5 4 3 3 3 3 4 4 4 4 5 6 7 7 7 7 8 7 8 8 8 9 9 9 9 10 10 10 10 10 11 11 10 11 11 10
51 53 54 54 54 55 56 45 27 19 19 20 19 17 13 9 6 5 4 3 4 4 4 4 4 5 5 6 7 8 8 8 8 8 9 9 9 9 9 10 10 11 11 11 11 11 11 11 11 11 11 11
45 46 47 47 48 48 48 44 29 19 19 20 19 18 14 10 6 5 4 4 4 4 4 5 5 6 6 7 7 8 9 9 9 9 9 9 9 10 10 11 11 11 12 12 12 12 12 12 12 12 12 12
40 41 42 43 43 43 43 40 29 19 19 20 19 19 16 11 7 5 5 4 4 4 5 5 5 7 7 8 8 9 10 9 10 9 9 9 10 10 11 12 12 12 12 12 13 12 12 12 12 13 13 14
37 38 39 40 40 40 39 35 28 20 19 20 19 19 17 13 8 6 5 5 5 5 5 6 6 7 8 9 9 10 10 11 10 9 10 10 10 11 12 13 13 13 13 13 14 13 13 13 13 14 15 16
35 37 37 38 38 38 38 35 30 23 20 19 19 19 18 15 11 8 6 5 5 5 6 6 7 8 8 9 10 11 11 11 11 10 10 10 11 13 13 14 14 14 14 14 14 14 14 15 15 16 17 17
34 35 36 37 37 38 38 37 33 28 24 21 20 20 19 17 13 9 7 6 6 7 7 7 8 8 9 10 10 11 12 12 12 11 11 12 13 14 14 15 14 14 15 15 15 16 15 16 17 18 18 17
33 34 35 36 37 37 37 36 34 32 29 25 22 21 19 18 15 11 9 8 8 8 8 9 9 9 9 10 11 12 13 13 13 12 12 13 14 15 15 15 15 15 15 15 16 17 18 18 18 18 18 18
32 33 34 35 36 36 35 35 34 33 31 28 26 24 22 20 18 15 12 10 9 9 9 10 10 10 10 11 12 12 13 14 14 13 13 13 15 16 16 16 16 16 16 16 17 19 22 21 20 19 18 18
32 33 34 35 35 34 34 34 33 33 32 30 28 27 25 23 21 19 16 14 12 11 11 11 12 12 12 12 13 13 14 15 15 15 13 13 15 17 17 16 16 16 16 17 18 21 23 23 23 22 19 18
32 33 34 34 34 34 34 34 33 33 32 31 30 29 27 25 24 22 21 19 17 15 14 14 14 14 14 14 15 15 16 16 16 16 16 15 15 16 17 17 16 17 17 18 19 20 23 25 26 24 20 20
32 33 33 33 33 33 33 33 33 33 32 32 31 30 29 27 26 25 24 23 22 21 19 18 17 17 17 17 17 17 18 18 18 18 17 17 16 17 18 18 18 18 18 19 20 21 22 23 24 24 23 24
33 33 33 33 33 33 33 33 33 33 32 32 31 30 29 28 28 27 27 27 26 26 24 23 22 20 20 20 19 20 20 20 20 19 19 19 18 18 18 19 19 18 19 20 21 22 22 22 22 22 23 25
Wind_Speed
23 21 20 19 19 18 17 18 17 16 15 15 14 13 14 13 13 13 12 12 12 11 11 11 10 10 10 10 10 10 10 9 9 8 8 8 7 8 7 7 7 7 7 7 7 7 7 7 7 7 7 7
25 23 22 21 20 19 19 19 18 17 16 16 15 14 14 14 14 13 13 13 13 12 12 11 11 11 11 11 10 10 9 9 8 8 8 8 8 8 8 8 7 7 7 7 8 8 8 8 7 7 7 6
25 25 24 23 21 20 20 19 18 18 17 17 16 15 15 15 15 14 14 14 13 13 13 13 12 12 12 11 11 10 10 9 9 9 9 9 9 9 8 8 8 8 8 8 8 8 8 8 8 7 7 6
26 26 25 23 22 22 21 20 18 18 18 18 17 16 16 16 15 15 15 15 14 14 14 14 14 13 13 12 12 11 10 10 9 9 9 9 9 9 9 8 8 8 8 8 8 8 8 8 8 8 7 7
27 27 25 24 23 22 20 19 19 19 19 19 18 16 16 16 16 15 15 15 14 15 14 15 15 15 14 13 12 11 11 10 9 9 9 9 9 9 8 8 8 8 8 8 8 8 8 8 8 8 7 7
28 27 25 24 22 21 21 20 20 20 20 19 18 17 16 17 16 15 15 14 14 14 15 15 15 15 15 14 13 12 11 10 10 10 9 9 9 8 8 8 8 8 8 8 8 8 8 8 8 8 8 7
28 27 26 24 22 22 22 22 22 21 20 19 18 17 17 18 17 16 16 15 15 15 15 16 16 16 15 14 14 13 12 12 11 11 10 10 9 9 8 8 8 7 7 7 7 7 7 7 8 8 8 8
28 27 26 24 23 23 23 23 23 21 20 19 19 18 19 19 19 18 17 17 16 16 16 16 16 16 15 15 14 14 13 13 12 12 11 10 10 9 9 8 8 7 7 7 7 7 7 7 7 8 8 8
27 26 26 25 24 24 23 24 23 22 21 21 21 20 21 21 20 19 19 18 18 17 17 17 17 16 16 16 15 15 14 14 13 12 11 11 11 10 9 8 8 7 7 7 7 7 7 7 8 8 8 8
26 25 27 27 26 25 24 25 24 23 23 22 22 22 22 22 21 21 20 19 19 19 19 18 18 18 17 17 16 16 15 14 13 12 12 12 11 10 10 9 9 8 8 8 8 8 8 8 8 8 8 8
26 25 27 27 27 26 26 26 25 24 23 23 23 22 22 22 22 21 21 21 21 20 19 19 19 18 18 17 17 16 15 15 14 13 13 12 12 11 10 10 10 10 9 9 9 9 9 9 9 9 9 9
27 25 26 27 27 27 27 27 26 25 23 23 23 23 23 23 22 22 22 22 22 21 20 19 19 19 18 18 17 16 16 15 14 14 13 13 13 12 12 12 12 11 11 11 10 10 10 10 10 10 10 10
30 28 27 28 29 29 28 28 27 25 23 24 23 23 24 23 23 23 23 23 22 21 21 20 20 19 19 18 17 17 16 15 15 15 14 14 14 14 13 13 13 13 13 12 12 11 11 11 11 10 10 10
35 33 31 30 31 30 29 28 27 25 24 24 24 24 24 24 23 24 25 24 23 22 22 21 20 20 19 18 18 17 17 16 16 16 16 15 15 15 14 14 14 14 13 13 13 12 12 11 11 11 10 10
38 37 34 32 32 31 30 29 28 26 25 25 25 25 25 24 24 25 26 26 24 23 22 22 21 20 20 19 18 18 18 18 17 17 17 16 16 15 15 15 15 15 14 14 14 13 12 12 12 11 11 10
40 39 36 34 33 32 31 30 29 28 27 26 26 26 25 25 25 26 27 27 25 24 23 23 22 21 21 20 19 19 19 19 19 18 17 17 17 16 16 16 16 16 15 15 14 14 13 13 12 12 12 11
39 38 37 35 33 32 31 31 30 29 28 27 26 26 25 25 26 27 28 28 26 25 25 24 23 22 22 21 21 21 21 20 20 19 18 18 18 18 18 17 17 17 16 16 15 15 14 13 13 12 12 12
37 36 36 35 32 31 31 32 31 30 29 27 27 26 26 26 27 27 28 28 27 26 26 25 24 23 22 22 22 22 22 21 20 20 20 20 19 19 19 18 18 18 17 17 16 16 15 15 14 13 13 12
34 34 33 32 31 31 31 32 31 30 29 28 27 26 26 26 27 28 28 28 28 28 27 26 25 24 23 23 23 23 23 22 22 21 21 21 21 20 20 20 20 19 18 18 17 17 16 16 15 14 14 14
32 32 32 31 31 30 31 32 32 31 29 28 27 26 26 27 28 28 28 28 29 29 28 27 26 25 24 24 24 24 24 24 23 22 22 22 22 22 21 21 21 20 19 19 18 18 17 17 16 15 15 15
30 30 30 30 30 30 30 31 31 31 29 28 27 26 26 27 28 28 28 29 29 29 29 28 27 25 25 25 25 25 25 24 24 23 24 24 23 23 23 22 22 21 21 20 20 19 19 18 18 17 16 16
29 29 29 29 29 29 29 30 30 30 30 29 28 27 26 27 28 29 28 29 30 30 30 29 28 27 26 26 26 26 26 25 25 25 25 25 25 24 24 24 23 22 22 21 21 21 20 20 19 18 18 18
28 28 28 28 28 28 29 29 30 31 31 30 28 27 26 27 28 29 29 30 30 31 30 30 29 28 28 27 27 27 26 26 26 27 27 27 26 26 26 25 24 23 23 23 23 22 22 21 21 20 20 20
27 27 28 28 28 28 28 29 30 31 31 30 29 28 27 27 28 29 30 30 31 32 31 30 30 29 29 28 28 28 28 27 27 28 28 27 27 28 27 26 26 25 24 24 24 24 23 23 23 23 23 22
26 26 26 27 27 27 27 27 29 30 30 31 30 29 28 27 27 29 30 31 31 32 32 31 31 31 30 30 30 29 28 27 28 28 28 28 29 29 29 28 27 27 26 26 26 26 26 26 26 25 24 24
25 25 25 26 25 25 25 26 27 27 29 30 30 29 29 28 28 29 30 31 31 32 32 32 32 32 32 31 31 30 28 28 28 29 30 30 30 30 30 29 28 28 29 29 29 27 27 27 27 27 26 26
24 24 24 25 25 25 25 25 25 26 27 27 28 29 29 28 28 29 29 30 31 31 32 33 33 33 33 32 32 31 30 29 30 31 31 31 32 32 32 31 30 31 31 31 30 28 27 26 25 26 28 29
22 23 23 24 24 24 25 25 24 24 25 26 27 27 27 28 28 28 29 30 30 31 31 32 33 33 33 33 33 32 31 30 30 31 32 32 33 33 33 33 32 32 33 33 31 28 26 24 22 23 27 29
20 22 22 23 24 24 25 25 25 25 25 26 27 27 27 27 27 28 28 28 29 29 30 31 31 32 33 33 33 33 33 32 31 31 32 33 33 34 35 35 34 34 35 35 34 31 27 23 20 22 24 25
19 20 21 23 23 24 24 25 25 25 25 25 26 27 26 26 26 27 27 27 27 28 29 29 30 30 31 32 33 34 34 33 32 32 32 33 34 35 35 36 36 36 36 36 36 35 33 28 24 23 22 21
19 20 21 22 23 24 24 25 25 24 25 26 26 26 26 26 26 26 26 26 26 27 28 28 29 29 30 31 32 32 34 34 34 33 33 33 34 35 35 37 38 38 37 37 37 37 37 36 33 30 27 25
Wind_Direction
210 206 202 203 204 200 203 208 208 208 211 214 212 211 213 216 216 213 211 209 206 202 200 200 196 188 178 170 163 160 163 168 176 183 191 197 202 206 207 206 205 203 197 192 188 183 178 175 172 169 170 179
214 209 205 206 207 204 208 212 212 213 215 216 215 215 217 220 220 217 213 210 207 201 200 199 195 189 180 175 170 170 176 181 189 194 200 203 205 207 206 203 199 194 187 182 181 175 174 172 171 168 166 172
214 212 210 209 210 208 211 213 212 214 215 217 218 219 219 221 221 218 215 212 208 202 201 201 198 193 185 181 180 183 188 192 198 200 203 203 204 203 201 200 193 188 181 175 175 171 168 167 165 164 163 170
217 216 215 213 211 210 213 215 213 214 215 219 222 223 221 221 221 220 218 215 210 206 206 205 201 197 192 190 190 193 197 200 203 203 205 203 202 202 200 199 194 188 181 178 177 172 168 166 165 165 164 170
223 223 220 216 215 213 216 218 217 217 220 224 227 226 223 222 223 222 221 218 214 212 210 208 205 202 199 198 198 201 204 206 208 208 208 207 205 204 203 200 197 192 185 184 182 178 173 170 171 171 171 175
228 229 224 219 218 217 219 220 221 224 227 229 229 226 222 222 222 220 220 218 215 214 214 212 210 207 205 205 205 207 210 212 214 214 213 214 212 210 209 205 203 197 191 190 187 184 180 179 179 179 183 184
232 232 227 222 222 222 224 226 229 230 231 230 228 224 220 222 221 218 217 216 215 214 216 216 214 213 211 211 212 213 215 217 218 219 219 220 220 218 216 212 209 202 198 196 193 191 188 188 187 189 193 194
234 232 228 226 226 228 230 232 233 232 231 228 225 221 219 222 220 219 218 218 218 218 218 218 217 217 216 216 217 218 219 221 222 223 224 223 223 222 220 218 217 211 204 204 201 200 199 197 198 200 202 203
234 229 226 226 228 229 231 233 233 231 228 226 225 222 221 222 221 221 221 221 222 221 221 219 219 218 218 220 220 222 223 224 225 226 226 225 225 224 224 222 222 220 213 212 212 211 210 208 208 209 210 211
233 226 223 225 228 230 231 234 233 231 230 228 227 226 225 224 222 222 222 223 224 223 223 222 222 221 221 223 224 226 227 228 228 228 228 228 230 229 228 227 227 227 222 220 220 221 219 217 218 217 217 216
233 225 223 227 231 233 234 236 235 234 233 232 232 231 230 227 225 225 225 226 226 226 226 226 226 225 226 226 228 230 230 232 232 231 232 232 233 232 231 231 232 232 231 226 223 226 225 222 223 223 222 221
233 224 225 231 234 236 236 237 237 237 235 234 235 235 234 230 227 227 228 230 230 230 230 230 229 229 229 230 232 233 234 235 235 234 234 234 233 233 233 233 233 234 235 233 227 225 227 226 225 226 227 226
234 229 232 238 238 237 238 238 238 237 236 237 237 237 236 232 229 229 230 232 232 233 233 233 233 232 233 234 236 237 239 239 238 237 235 235 234 233 233 234 236 236 237 237 234 228 228 231 230 230 231 231
241 237 239 242 242 240 240 241 239 237 237 238 238 238 237 233 231 231 232 233 234 234 235 236 236 236 237 238 240 241 242 241 240 238 236 236 236 236 236 236 238 239 240 240 241 237 232 233 235 234 233 233
248 246 244 243 243 243 242 242 240 238 238 238 239 238 237 234 232 231 233 234 235 235 236 237 238 238 240 241 242 243 243 243 241 239 238 238 238 238 238 238 239 239 241 241 242 242 237 234 234 235 234 233
253 253 252 247 244 244 243 242 240 239 239 239 239 239 237 235 233 233 235 236 236 236 236 238 238 239 241 242 243 244 245 244 242 241 240 239 238 238 238 239 239 240 241 241 242 242 241 236 232 233 233 231
255 256 256 253 248 246 244 242 241 240 240 241 241 240 238 236 235 235 236 238 239 237 238 239 239 240 241 243 244 244 245 245 243 242 241 240 239 238 239 239 239 240 240 240 241 240 241 238 233 229 229 229
255 256 257 256 253 249 246 243 242 241 241 242 242 241 240 238 238 238 238 240 241 240 240 240 240 241 241 243 245 245 246 246 244 243 242 241 240 239 239 239 239 240 240 240 240 239 239 237 233 228 224 223
257 258 259 259 257 254 250 246 243 242 242 242 242 242 241 241 241 240 241 242 243 243 242 242 242 242 243 244 245 246 247 246 244 243 241 240 240 239 239 239 238 239 239 239 239 238 237 234 232 227 220 217
260 261 261 261 260 258 254 249 245 243 243 243 243 243 242 242 243 243 243 244 245 245 244 244 244 244 244 245 246 247 247 246 245 243 242 241 240 240 240 240 239 239 238 238 237 236 234 232 230 227 221 217
261 262 262 262 261 260 258 253 248 245 245 245 244 244 243 243 244 245 246 246 247 247 247 246 246 245 245 246 247 248 248 248 246 244 243 242 242 241 240 240 240 240 238 237 235 233 232 230 228 225 222 216
262 262 262 262 262 261 259 257 252 248 247 247 246 245 245 246 246 248 249 249 250 250 249 247 246 245 245 247 248 249 249 248 247 245 244 244 243 243 241 240 240 239 238 236 234 231 230 228 226 224 221 216
260 260 260 260 260 259 259 257 253 249 248 249 249 248 247 248 249 250 251 252 252 252 251 249 248 247 247 248 249 250 249 248 246 245 245 244 244 243 241 240 238 236 236 235 232 230 228 227 226 224 222 219
258 258 258 259 258 258 259 258 255 252 251 251 251 250 249 249 250 252 252 252 253 254 253 252 251 250 249 249 250 250 249 248 248 247 247 246 245 243 240 239 237 234 233 232 231 229 228 227 226 224 224 224
263 262 262 262 263 265 266 263 260 258 256 255 254 253 252 251 252 253 254 254 254 255 255 255 253 252 251 251 251 252 252 251 250 250 248 246 244 242 241 239 237 234 231 228 229 229 229 229 227 226 227 229
270 272 272 271 273 274 273 269 267 266 264 262 259 258 256 255 254 254 255 256 255 255 256 256 255 254 253 253 254 255 255 253 250 249 248 246 244 242 241 240 237 235 232 230 230 230 231 233 232 232 234 235
277 277 276 275 275 276 274 272 271 270 268 266 264 264 262 260 259 258 258 257 257 256 256 257 257 257 256 256 257 257 256 254 252 250 249 248 246 243 242 241 238 236 234 233 232 230 232 236 238 239 240 240
279 276 273 271 271 270 269 269 269 268 267 267 266 265 264 263 262 261 260 260 259 259 259 260 260 259 258 258 258 259 258 257 255 254 252 250 248 246 244 243 241 239 236 234 232 229 232 236 240 244 245 246
277 274 271 268 265 264 264 264 264 264 268 270 268 269 270 268 267 266 266 265 264 264 263 263 263 263 261 260 260 260 260 260 259 257 255 254 252 250 248 247 245 242 238 237 235 233 232 233 237 246 249 253
278 276 273 270 267 267 267 267 268 272 279 279 277 278 277 274 273 273 272 271 271 270 269 268 267 266 265 264 263 262 262 262 260 259 258 257 256 254 253 250 247 244 242 241 240 238 237 237 242 250 254 256
261 266 269 271 272 273 274 274 277 283 286 284 282 280 277 277 277 277 278 278 278 277 276 275 273 271 269 268 267 265 264 263 262 262 261 260 258 257 255 252 249 248 246 244 243 242 242 244 247 251 255 256